Location: Grange Verzio
(44.5000°N, 6.9833°E)
Time: 06:46:59
(UTC+00:00)

Cosmos 841 Rocket - Pass Details

Date: 01 February 2023
Orbit: 746 x 771 km, 74.0° (Epoch: 21 March)

Event Time Altitude Azimuth Distance (km) Brightness Sun altitude
Rises 18:08:41 0° 346° (NNW) 3,256 6.8 -15.9°
Reaches altitude 10° 18:11:19 10° 355° (N) 2,325 6.0 -16.3°
Maximum altitude 18:16:05 33° 60° (ENE) 1,267 4.1 -17.2°
Enters shadow 18:17:15 30° 86° (E) 1,352 4.2 -17.4°
